COSMOS 1275 DEB

Satellite information

Favourite Embed

Satellite Type and Status

DEBRISIN ORBIT

Key statistics

Satellite COSMOS 1275 DEB at a glance.

Uptime

16264

Days in orbit

Revolutions

≈ 14.1

Per day

Orbit

LEO

Low Earth Orbit

Inclination

82.9

Latest

Satellite identification and parameters

Extended collection of information and parameters for COSMOS 1275 DEB.

Object identification

Identified? True

Debris? True

Object name: COSMOS 1275 DEB

International designator: 1981-053UJ

Object number (NORAD): 42218

Object ID (CCSDS): 42218

Country: COMMONWEALTH OF INDEPENDENT STATES (CIS)

Current information (Y/N): Y

RCS size: SMALL

Orbital parameters

Period: 102.354 minutes

Inclination: 82.8651 deg

SMA: 7248.196 km

Apoapsis: 916.379 km

Periapsis: 823.744 km

RAAN: 113.3652 deg

Eccentricy: 0.0063902

Argument of periapsis: 93.2281 deg

Mean anomaly: 267.6207 deg

Mean motion: 14.0688261 rev/day

Mean motion (dot): 0.00003913 rev/day2

B* drag term: 0.002297 1/REarth

Two-line elements (TLE)

Creation date: Sept. 30, 2025, 7:36 a.m.

Reference frame: TEME

Reference center: EARTH

Epoch: Sept. 29, 2025, 6:40 a.m. UTC

TLE line 0: 0 COSMOS 1275 DEB

TLE line 1: 1 42218U 81053UJ 25272.27780183 .00003913 00000-0 22970-2 0 9996

TLE line 2: 2 42218 82.8651 113.3652 0063902 93.2281 267.6207 14.06882610605136

Live tracking on map

Real-time ground track for satellite COSMOS 1275 DEB.

In-orbit conjunctions

A list of the most updated potential collisions computed for object COSMOS 1275 DEB.

Target Orbit TCA Probability of collision Miss distance Type
NOAA 16 SSO 2025-09-27 18:58:15 0.0001003851 490.0 (m) PAYLOAD
CZ-6A DEB LEO 2025-08-09 08:04:04 0.0001646813 663.0 (m) DEBRIS
FENGYUN 1C DEB SSO 2025-03-21 04:09:43 0.0001281469 215.0 (m) DEBRIS
COSMOS 1299 LEO 2025-01-15 14:41:33 0.0003978525 323.0 (m) PAYLOAD
NOAA 11 SSO 2024-09-24 07:47:10 0.0002544116 698.0 (m) PAYLOAD

Associated space launch

Navigation satellite providing location information for the Tsiklon-B navigation system

COSMOS 1275 DEB was lifted into orbit during the mission ‘Kosmos-3M | Parus 27’, on board a Kosmos-3M space rocket.

The launch took place on June 4, 1981, 3:41 p.m. from 132/2.

For more information about the launch, click the button.

Launch to space Kosmos-3M | Parus 27
Kosmos-3M | Parus 27

Agency: N/A

Status: Launch Successful

Launch date: June 4, 1981, 3:41 p.m. UTC

Rocket: Kosmos-3M

Launch pad: 132/2

Location: Plesetsk Cosmodrome, Russian Federation

...

Latest news about this satellite

There are no fresh news available about this satellite. Check back as we update our databases every day.


Newsletter sign-up

Weekly statistics, charts and insights to help you stay on top of the space industry.